Location: Marsån
(66.4167°N, 22.2833°E)
Time: 10:33:36
(UTC+00:00)

COSMO-SKYMED 1 - Pass Details

Date: 24 February 2024
Orbit: 621 x 623 km, 97.9° (Epoch: 15 April)

Event Time Altitude Azimuth Distance (km) Brightness Sun altitude
Rises 17:34:14 0° 20° (NNE) 2,926 5.9 -13.7°
Reaches altitude 10° 17:36:26 10° 19° (NNE) 2,015 5.1 -13.9°
Maximum altitude 17:40:49 79° 294° (WNW) 646 2.7 -14.3°
Drops below altitude 10° 17:45:11 10° 208° (SSW) 2,002 5.4 -14.7°
Sets 17:47:22 0° 207° (SSW) 2,905 6.2 -15.0°
